Location: Rehoboth Beach
(38.7438°N, 75.1341°W)
Time: 05:36:27
(UTC-04:00)

Hubble Space Telescope - Visible Passes

Search period start: 02 June 2015 00:00
Search period end: 12 June 2015 00:00
Orbit: 542 x 546 km, 28.5° (Epoch: 01 June)

Date Brightness Start Highest point End Pass type
(mag) Time Alt. Az. Time Alt. Az. Time Alt. Az.
04 Jun 3.0 03:51:09 12° SSE 03:51:09 12° SSE 03:52:18 10° SE visible
05 Jun 2.9 03:42:45 13° SSE 03:42:45 13° SSE 03:44:05 10° SE visible
06 Jun 2.9 03:34:22 14° SSE 03:34:22 14° SSE 03:35:37 10° SE visible
07 Jun 3.0 03:26:02 14° SE 03:26:02 14° SE 03:27:02 10° SE visible
07 Jun 2.4 05:02:00 10° SW 05:04:59 19° S 05:07:58 10° SE visible
08 Jun 3.1 03:17:46 12° SE 03:17:46 12° SE 03:18:22 10° SE visible
08 Jun 2.4 04:53:17 10° SW 04:56:10 18° S 04:59:02 10° SE visible
09 Jun 3.3 03:09:37 10° SE 03:09:37 10° SE 03:09:38 10° SE visible
09 Jun 2.5 04:45:04 12° SW 04:47:20 17° S 04:50:02 10° SSE visible
10 Jun 2.6 04:37:04 13° SW 04:38:30 15° SSW 04:40:56 10° SSE visible
11 Jun 2.6 04:29:13 13° SSW 04:29:38 13° SSW 04:31:41 10° SSE visible
